Location: Newark
(44.3681°N, 100.3364°W)
Time: 13:43:45
(UTC+00:00)

S-56A Canister/Altair - Pass Details

Date: 08 March 2020
Orbit: 634 x 2498 km, 38.9° (Epoch: 29 March)

Event Time Altitude Azimuth Distance (km) Brightness Sun altitude
Rises 21:22:11 0° 278° (W) 6,037 12.6 30.7°
Reaches altitude 10° 21:29:41 10° 254° (WSW) 5,154 12.9 29.8°
Maximum altitude 21:34:49 13° 234° (SW) 4,924 13.5 29.1°
Drops below altitude 10° 21:39:54 10° 213° (SSW) 5,057 13.2 28.4°
Sets 21:47:12 0° 188° (S) 5,804 12.7 27.4°
